Погода в Мироновке

Погода в Мироновке : погода сейчас, прогноз погоды и архив. Всё, что Вы хотите узнать о погоде в Мироновке!

Хотите узнать прогноз погоды в Мироновке? Тогда Вам сюда: Погода в Мироновке

Поиск расширенной информации на нашем сайте:

Другие новости

Новости СМИ2

Главная страница сайта

Новости сайта

03.07.2017

Напоминаем, что на нашем специализированном сайте Метеоцентр.Азия вы можете получить высокодетализированные автоматические прогнозы погоды по пунктам России, СНГ и мира в авиационном формате (включающие направление и скорость ветра, видимость, явления погоды, количество и форму облачности, нижнюю и верхнюю границу облачности).


Погода в Мироновке - сегодня

Время (UTC), дата Ветер
(°,м/с) 
Видим.   Явления Облачность Т
(°С)
Тd
(°С)
f(%) Тe
(°С)
Pmin
(гПа)
dP
(гПа)
Po
(мм)
O2
(г/м3)
Тmin Tmax R s Состояние
почвы
12 08.12.17 220 (ЮЗ) 20000 м    ясно 
+6.9 +0.6 64 +7  1013.4  -1.3  746  293           
15 08.12.17 200 (Ю) 16000 м    ясно 
+4.7 +1.1 77 +3  1013  -0.5  746  295           
18 08.12.17 180 (Ю) 11000 м    ясно 
+2.8 +0.4 84 +1  1013.1  746  297    +7.2       
21 08.12.17 190 (Ю) 8000 м  дымка  ясно 
+1.7 +0.6 92 +1  1013  -0.2  746  298           
00 09.12.17 160 (Ю) 2200 м  дымка  ясно 
+0.7 +0.4 98 -1  1012.4  -0.7  745  299           
03 09.12.17 170 (Ю) 0300 м  переохл. туман  ?/?  
-0.4 -0.4 100 -2  1011.9  -0.5  745  300           
06 09.12.17 150 (ЮВ) 0200 м  переохл. туман [диам. гололёда 1 мм]  ?/?  
-0.9 -0.9 100 -3  1011.5  -0.5  744  301  -1.1         
09 09.12.17 170 (Ю) 0300 м  переохл. туман  ?/?  
-0.4 -0.5 99 -2  1011  -0.4  744  300           
12 09.12.17 160 (Ю) 3000 м  дымка{туман}  10/10 180 м 
[St]
+0.6 +0.1 96 -2  1009.8  -1.1  743  299    -0.2       
15 09.12.17 100 (В) 3000 м  дымка  10/5 600 м средняя 
[Sc|Ac As]
+0.8 -0.3 92 +1  1008.8  -1  742  298           
18 09.12.17 150 (ЮВ) 4500 м  дымка  10/10 330 м 
[Sc]
+2.2 +1.7 96 1007.6  -1.1  742  296    +2.2       
21 09.12.17 130 (ЮВ) 6000 м  дымка  10/10 400 м 
[Sc]
+3.9 +3.2 95 +3  1006.3  -1.1  741  294           
00 10.12.17 150 (ЮВ) 9000 м  дымка  8/8 480 м 
[Sc]
+5.1 +3.4 89 +4  1004.5  -1.7  739  292    -0.2       
03 10.12.17 160 (Ю) 9000 м  дымка  10/10 480 м 
[Sc]
+4.9 +3.5 91 +3  1002.9  -1.6  738  292    -0.2       
06 10.12.17 тихо ()   7000 м  дымка  10/10 480 м 
[Sc]
+5.3 +4.4 94 +5  1002.2  -0.6  738  291  +2.2         
09 10.12.17 310 (СЗ) 3000 м  слаб. морось  10/10 300 м 
[St]
+4.2 +3.5 95 +5  1001.6  -0.7  737  292           
12 10.12.17 310 (СЗ) 1800 м  слаб. дождь{морось}  10/10 180 м 
[Frnb|Ns]
+3 +2.5 97 +4  999.6  -2.1  736  293           
15 10.12.17 320 (СЗ) 0700 м  сильн. снег{дождь}  10/10 180 м 
[Frnb|Ns]
+0.1 -0.2 98 -3  998.3  -1.4  735  296           
18 10.12.17 300 (СЗ) 2300 м  слаб. снег  10/10 300 м 
[Frnb|Ns]
-1.3 -2 95 -5  999.5  735  298    +5.3  16     
21 10.12.17 290 (З) 9000 м  позёмок{снег}  10/10 600 м 
[Sc]
-1.2 -3.5 84 -5  1004.1  4.6  739  299           
00 11.12.17 250 (З) 12000 м  {снег}  ясно 
-1.4 -4 82 -4  1007.4  3.2  741  301           
03 11.12.17 230 (ЮЗ) 15000 м    10/0 средняя 
[As op]
-3.2 -6.7 77 -5  1010.2  2.6  743  304           
06 11.12.17 170 (Ю) 15000 м    10/0 средняя, верхняя 
[Ac trans|Cs]
-3.7 -7.3 76 -7  1010  -0.2  743  304  -3.9    14  равномерный
сухой снег
100% 
09 11.12.17 180 (Ю) 19000 м    10/0 средняя, верхняя 
[Ac trans|Cs]
-2.7 -6.8 73 -7  1010.9  0.9  744  303           
12 11.12.17 170 (Ю) 20000 м    9/3 1000 м средняя, верхняя 
[Sc|Ac trans|Cc]
-0.9 -5.8 69 -3  1010.8  744  301           
Время (UTC), дата Ветер
(°,м/с) 
Видим.   Явления Облачность Т
(°С)
Тd
(°С)
f(%) Тe
(°С)
Pmin
(гПа)
dP
(гПа)
Po
(мм)
O2
(г/м3)
Тmin Tmax R s Состояние
почвы

Для получения пояснительной информации подведите курсор к названию столбца.

ПОГОДА в Мироновке - архив

Всё, что Вы хотите узнать о погоде в Мироновке - удобно и подробно!

Выберите нужную дату (начиная с 1 января 2015* года) и нажмите кнопку "Найти".
Будут отображены архивные сводки погоды по пункту Мироновка, начиная с указанной даты.


Отображать данные в формате CSV (для использования в таблицах Excel)


Внимание! Наш архив погоды предназначен исключительно для личного некоммерческого использования в познавательных целях. Если Вам необходимы официальные справки о состоянии погоды (для производственных, юридических, коммерческих и т.п. целей), обращайтесь в органы Росгидромета.

*Примечание: данная дата относится к архиву по метеостанциям СССР (Россия, СНГ, Балтия).
Архив по метеостанциям Зарубежной Европы и Азии (кроме Китая) хранится 10 дней, по другим регионам земного шара (Китай, Африка, Америка, Австралия, Океания) - 1 день.

Мироновка - район местоположения метеостанции


Название, широта, долгота, высота метеостанции:
Мироновка 49.7°ш. 31°д. 153 м над ур. моря [Украина]

Дополнительная информация

В oтличие oт бoльшинства пoгoдных сайтoв мы публикуем пoдрoбную метеoинфoрмацию в детальнoм прoфессиoнальнoм фoрмате.

Характеристики температуры и влажнoсти вoздуха измеряются на высoте 2 м в тени вдали oт зданий и деревьев.
Скoрoсть ветра измеряется на высoте 10 м (на урoвне рoста челoвека скoрoсть ветра ниже в 1.5-2 раза). Если метеoстанция нахoдится в гoрoде или в лесу, тo скoрoсть ветра занижена на 2-4 м/с пo сравнению с oткрытым местoм. Скoрoсть ветра над акватoриями крупных рек и oзёр, а также на вершинах хoлмoв на 2-5 м/с выше, чем в oбычных услoвиях.
Атмoсфернoе давление в разных тoчках местнoсти мoжет значительнo oтличаться oт давления на метеoстанции, в зависимoсти oт услoвий рельефа (при пoдъёме на 10 м давление пoнижается примернo на 1 мм рт.ст.).